Location: Forli
(44.2227°N, 12.0407°E)
Time: 04:42:29
(UTC+01:00)

ARIANE 6 FM1 Upper Stage - Pass Details

Date: 22 February 2026
Orbit: 523 x 607 km, 62.0° (Epoch: 6 March)

Event Time Altitude Azimuth Distance (km) Brightness Sun altitude
Rises 18:38:24 0° 311° (NW) 2,657 6.8 -9.3°
Reaches altitude 10° 18:40:47 10° 300° (WNW) 1,766 6.1 -9.7°
Maximum altitude 18:44:12 29° 240° (WSW) 993 4.7 -10.3°
Drops below altitude 10° 18:47:39 10° 180° (S) 1,774 5.3 -10.9°
Sets 18:50:03 0° 169° (SSE) 2,671 6.0 -11.4°
